Location: Unspecified
(48.8656°N, 0.0000°E)
Time: 11:35:57
(UTC+00:00)

Tiangong 2 - Visible Passes

Search period start: 19 May 2019 00:00
Search period end: 29 May 2019 00:00
Orbit: 378 x 387 km, 42.8° (Epoch: 19 May)

Date Brightness Start Highest point End Pass type
(mag) Time Alt. Az. Time Alt. Az. Time Alt. Az.
20 May 2.7 20:58:07 10° SSW 21:00:13 17° SSE 21:00:26 17° SSE visible
21 May 2.4 21:33:53 10° SW 21:36:03 24° S 21:36:03 24° S visible
22 May 2.5 20:34:12 10° SW 20:36:39 21° SSE 20:39:06 10° ESE visible
22 May 3.1 22:10:11 10° WSW 22:11:18 17° SW 22:11:18 17° SW visible
23 May 2.2 21:10:17 10° WSW 21:12:59 26° S 21:14:07 21° SE visible
24 May 2.5 21:46:44 10° WSW 21:49:00 23° SSW 21:49:00 23° SSW visible
25 May 2.3 20:46:44 10° WSW 20:49:25 26° S 20:51:36 13° SE visible
25 May 3.7 22:23:40 10° WSW 22:23:47 10° SW 22:23:47 10° SW visible
26 May 2.7 21:23:21 10° WSW 21:25:41 19° SSW 21:26:19 18° S visible
27 May 2.5 20:23:13 10° WSW 20:25:48 23° S 20:28:22 10° SE visible
28 May 3.2 21:00:07 10° WSW 21:02:00 15° SSW 21:03:30 12° S visible
